counter statistics

Jackpot

Texas Poker Multi Jackpot System

Kini Telah hadir Jackpot SUPER ROYAL FLUSH

Kini Telah hadir Jackpot 2000 (khusus table VIP keatas).

Ikutilah global jackpot yang tersedia di system kami, dengan system jackpot terbaru dan pertama di indonesia, anda dapat membeli jackpot dengan harga 100 rupiah saja dan menangkan hadiahnya hingga puluhan juta rupiah.

Jackpot bukanlah suatu keharusan untuk dibeli, namun kami memberikan suatu fitur tambahan untuk member tercinta dari www.lahanpoker.net.

Terdapat tiga pilihan harga jackpot yang bisa anda beli yaitu :100,500,1000 dan 2000(khusus table VIP Keatas) rupiah.

Hadiah dari Multi jackpot system www.lahanpoker.net

  1. full house x 10 harga jackpot yang anda beli.
      (contoh:anda membeli 1000 maka:1000 X10 = 10.000)
  2. four of kind x 250 harga jackpot yang anda beli
      (contoh:anda membeli 1000 maka:1000 X250 = 250.000)
  3. Straight flush x 1200
      (contoh:anda membeli 1000 maka:1000 X1200 = 1.200.000)
  4. Royal flush x 10000 harga jackpot yang anda beli
      (contoh:anda membeli 1000 maka:1000 X10000 = 10.000.000)
  5. SUPER ROYAL FLUSH x 30000 harga jackpot yang anda beli
      (contoh:anda membeli 1000 maka:1000 X30000 = 30.000.000)

Kondisi kartu

  1. full house adalah kondisi kartu dimana kartu anda dan kartu tengah dengan total 7 kartu bisa mendapatkan nilai 5 kartu dengan kombinasi 1 tris(three of kind) dan 1 pair, contoh 3 kartu 10 dan 2 kartu 5
  2. Four of kind adalah kondisi kartu dimana kartu anda dan kartu tengah dengan total 7 kartu bisa mendapatkan nilai 5 kartu dengan kombinasi 4 kartu yang sama jumlah dan 1 kartu apapun juga contoh anda mendapatkan 4 buah kartu angka 3 dan 1 kartu apapun.
  3. Staright flush adalah kondisi kartu dimana kartu anda dan kartu tengah dengan total 7 kartu bisa mendapatkan nilai 5 kartu dengan kombinasi seri / staright dengan kembang yang sama contoh : urutan kartu dari angka 5, 6, 7, 8 , 9 10 dengan kembang yg sama misalnya as hati
  4. Royal flush adalah kondisi kartu dimana kartu anda dan kartu tengah dengan total 7 kartu bisa mendapatkan nilai 5 kartu dengan kombinasi seri / staright dengan kembang yang sama tetapi kartu tersebut haruslah dimulai dari 10. contoh 10, Queen, Jack, King dan aces dengan kembang yang sama
  5. Super Royal flush adalah kondisi kartu dimana Kedua kartu anda digabung dengan 3 kartu pertama meja haruslah royal flush. contoh kartu anda 10,Queen kembang sama dan 3 kartu pertama meja adalah Jack, King dan aces dengan kembang yang sama

Demikian adalah penjelasan dari Multi Jackpot www.lahanpoker.net terima kasih dan selamat bermain salam hoki dari kami

Texas Poker Jackpot Winner

TOP SUPER ROYAL FLUSH
No.TanggalNamaPriceWin
123/04 20:01GOLFCINTASuper Royal flush6,000,000
223/04 19:45WEL02Super Royal flush15,000,000
323/04 19:43TELONLANG2Super Royal flush6,000,000
423/04 18:12RENNNNNOSuper Royal flush6,000,000
523/04 17:57RRNANSuper Royal flush15,000,000
TOP ROYAL FLUSH
No.TanggalNamaPriceWin
123/04 22:16AQUARIUS_2Royal flush10,000,000
223/04 22:15CEUYAH99Royal flush5,000,000
323/04 22:09S1N1GAM1Royal flush1,000,000
423/04 21:55MIINFREAKRoyal flush2,000,000
523/04 21:40AOK90Royal flush10,000,000
TOP STRAIGHT FLUSH
No.TanggalNamaPriceWin
123/04 22:33PLGVINO83Straight Flush600,000
223/04 22:33NAVISHA24Straight Flush120,000
323/04 22:33ACAYCOSTA0Straight Flush240,000
423/04 22:32LALALA777Straight Flush60,000
523/04 22:30CHANDE88Straight Flush600,000
LATEST JACKPOT
No.TanggalNamaPriceWin
123/04 22:34NGEWAK3Full House2,000
223/04 22:34BANGROYAL8Full House10,000
323/04 22:34AN4RABHIANAFull House2,000
423/04 22:34LESBI77Full House1,000
523/04 22:34CASHBERGFull House10,000
623/04 22:34EFANPUMASFull House5,000
723/04 22:34POLDA0077Full House2,000
823/04 22:34KOMANDO7777Full House20,000
923/04 22:34PULZ4Q1UFull House500
1023/04 22:34CUNEX1921Full House10,000
1123/04 22:34TEMPOS5Full House2,000
1223/04 22:34GLKX23Full House1,000
1323/04 22:34GEGO12Full House5,000
1423/04 22:34MURIS1989Four Of A Kind250,000
1523/04 22:34CE16CAF5Full House2,000
1623/04 22:34KAMBE79Full House1,000
1723/04 22:34AGU5000Full House1,000
1823/04 22:34ALIBADEKFull House2,000
1923/04 22:33D44V1D99Full House2,000
2023/04 22:33MU93N555Full House5,000
2123/04 22:33JOY133Full House10,000
2223/04 22:33DERIOKTAFull House500
2323/04 22:33PLGVINO83Straight Flush600,000
2423/04 22:33FEWANFour Of A Kind125,000
2523/04 22:33MXSNVK4DMEFull House5,000
2623/04 22:3369BALLFour Of A Kind12,500
2723/04 22:33NAVISHA24Straight Flush120,000
2823/04 22:33RIO2112Full House1,000
2923/04 22:33AMPAOO06Full House2,000
3023/04 22:33MIOO22Full House5,000
3123/04 22:33RAWA77Full House2,000
3223/04 22:33MARTHA4564Full House2,000
3323/04 22:33COMBATZ66Full House1,000
3423/04 22:33ZGT13Full House10,000
3523/04 22:33PANJI2882Full House1,000
3623/04 22:33THFITRFull House2,000
3723/04 22:33YOHANN007Full House20,000
3823/04 22:33OHANG_AAFull House1,000
3923/04 22:33ALFARABY19Four Of A Kind250,000
4023/04 22:33BD6WHSW9AXFull House2,000
4123/04 22:33SSUJFull House500
4223/04 22:33FBCHFull House10,000
4323/04 22:33PR4MUDY4Four Of A Kind25,000
4423/04 22:33TABAK456Full House10,000
4523/04 22:33JAKLOT00Full House5,000
4623/04 22:33NAYDZONFull House2,000
4723/04 22:33YUNUS_70Full House5,000
4823/04 22:33AATAMARA10Full House5,000
4923/04 22:33JAMETODFull House5,000
5023/04 22:33ANDRAABYFull House10,000

Domino Multi Jackpot System

Ikutilah global jackpot yang tersedia di system kami, dengan system jackpot terbaru dan pertama di indonesia, anda dapat membeli jackpot dengan harga 100 rupiah saja dan menangkan hadiahnya hingga puluhan juta rupiah.

Jackpot bukanlah suatu keharusan untuk dibeli, namun kami memberikan suatu fitur tambahan untuk member tercinta dari www.lahanpoker.net.

Terdapat tiga pilihan harga jackpot yang bisa anda beli yaitu :100,500 dan 1000 rupiah.

Hadiah dari Multi jackpot system www.lahanpoker.net

  1. Murni Kecil x 50 harga jackpot yang anda beli.
      (contoh:anda membeli 1000 maka:1000 X 50 = 50.000)
  2. Murni Besar x 50 harga jackpot yang anda beli
      (contoh:anda membeli 1000 maka:1000 X 50 = 50.000)
  3. BALAK x 100 harga jackpot yang anda beli
      (contoh:anda membeli 1000 maka:1000 X 100 = 100.000)
  4. ENAM DEWA x 6666 harga jackpot yang anda beli
      (contoh:anda membeli 1000 maka:1000 X 6666 = 6.666.000)

Demikian adalah penjelasan dari Multi Jackpot www.lahanpoker.net terima kasih dan selamat bermain salam hoki dari kami

Domino Jackpot Winner

TOP ENAM DEWA
No.TanggalNamaPriceWin
123/04 21:16BP6666murni enam666,600
223/04 20:15ANDRE945murni enam666,600
323/04 19:26UDUZ22murni enam6,666,000
423/04 18:47ONK66murni enam3,333,000
523/04 14:15WAWONII123murni enam6,666,000
TOP BALAK
No.TanggalNamaPriceWin
123/04 22:31UJIGALAIbalak50,000
223/04 22:26A21633F2balak10,000
323/04 22:23BADRUN12balak100,000
423/04 22:20ACONGGALAUbalak100,000
523/04 22:19CICHO02balak50,000
LATEST JACKPOT
No.TanggalNamaPriceWin
123/04 22:34DOKTERGTmurni besar5,000
223/04 22:34HAERUJI88murni besar50,000
323/04 22:33MASADY90murni besar5,000
423/04 22:32HJBU41murni besar25,000
523/04 22:32F457174D16murni besar25,000
623/04 22:32ANILAHSA16murni besar25,000
723/04 22:31UJIGALAIbalak50,000
823/04 22:30GEPENKOBLOmurni kecil50,000
923/04 22:30ATTO337lucky9910,000
1023/04 22:30SUHENDRAA9murni besar25,000
1123/04 22:29DASMIL66murni besar25,000
1223/04 22:28M0NYEETmurni kecil25,000
1323/04 22:28QQYONO123murni besar50,000
1423/04 22:28PUTRY0123murni kecil50,000
1523/04 22:28KING001murni besar50,000
1623/04 22:27I0SNT02RPTmurni besar25,000
1723/04 22:27BAGOY789murni besar5,000
1823/04 22:27K3NA6666murni kecil50,000
1923/04 22:26A21633F2balak10,000
2023/04 22:25BE8A9B79murni kecil50,000
2123/04 22:25CABEE2Xmurni besar50,000
2223/04 22:24CHARIES77murni besar50,000
2323/04 22:24PENTIL16murni kecil5,000
2423/04 22:23ROSSI_999murni kecil50,000
2523/04 22:23BADRUN12balak100,000
2623/04 22:22CHARIES77murni besar50,000
2723/04 22:22MY80Smurni kecil5,000
2823/04 22:21SAIPUL1818murni kecil25,000
2923/04 22:20GUN705murni kecil50,000
3023/04 22:20ACONGGALAUbalak100,000
3123/04 22:20PJR2017murni kecil50,000
3223/04 22:19TU4Xmurni besar25,000
3323/04 22:19CECEKTITmurni besar50,000
3423/04 22:19CICHO02balak50,000
3523/04 22:19CINGCUIDmurni besar25,000
3623/04 22:19AGUSCIKmurni kecil50,000
3723/04 22:18PARIN11murni besar5,000
3823/04 22:17CHAIKAmurni besar25,000
3923/04 22:17KELAYUNG74murni besar50,000
4023/04 22:17DALLE1977lucky99350,000
4123/04 22:17KING001murni besar50,000
4223/04 22:17JULPI79murni kecil50,000
4323/04 22:16BLOBET9lucky992,500
4423/04 22:16DN4DKOMANGmurni kecil50,000
4523/04 22:15VARISSSmurni kecil50,000
4623/04 22:15SAIPUL1818murni besar25,000
4723/04 22:15PRIAPKmurni kecil25,000
4823/04 22:15GUN705murni besar50,000
4923/04 22:14BOSS588murni besar25,000
5023/04 22:14IR2211murni kecil50,000

Ceme Multi Jackpot System

Jackpot dilihat dari gabungan kartu pemain dengan kartu bandar. Bandar harus membeli jackpot sebanyak jumlah player yang sedang duduk. Sebagai contoh bila terdapat 3 pemain duduk bermain, dan bandar memutuskan untuk membeli jackpot Rp 1.000, maka pada periode tersebut bandar akan membeli jackpot sebanyak 3xRp1.000 = Rp3.000.

Jackpot bukanlah suatu keharusan untuk dibeli, namun kami memberikan suatu fitur tambahan untuk member tercinta dari www.lahanpoker.net.

Terdapat tiga pilihan harga jackpot yang bisa anda beli yaitu :100,500 dan 1000 rupiah.

Hadiah dari Multi jackpot system www.lahanpoker.net

  1. Murni Kecil x 50 harga jackpot yang anda beli.
      (contoh:anda membeli 1000 maka:1000 X 50 = 50.000)
  2. Murni Besar x 50 harga jackpot yang anda beli
      (contoh:anda membeli 1000 maka:1000 X 50 = 50.000)
  3. BALAK x 200 harga jackpot yang anda beli
      (contoh:anda membeli 1000 maka:1000 X 200 = 200.000)
  4. ENAM DEWA x 6666 harga jackpot yang anda beli
      (contoh:anda membeli 1000 maka:1000 X 6666 = 6.666.000)

Demikian adalah penjelasan dari Multi Jackpot www.lahanpoker.net terima kasih dan selamat bermain salam hoki dari kami

Ceme Jackpot Winner

TOP ENAM DEWA
No.TanggalNamaPriceWin
123/04 22:33AGSC899999murni enam6,666,000
223/04 22:26EPPOP5CZKVmurni enam6,666,000
323/04 22:26MODAR79murni enam3,333,000
423/04 22:15JESTYN12murni enam6,666,000
523/04 22:15EMEN_77murni enam3,333,000
TOP BALAK
No.TanggalNamaPriceWin
123/04 22:33WEAH365balak100,000
223/04 22:33DISUR38balak200,000
323/04 22:33HERIAE19balak20,000
423/04 22:33UTUNG74balak200,000
523/04 22:33ADET47balak200,000
LATEST JACKPOT
No.TanggalNamaPriceWin
123/04 22:34WILIE13murni kecil50,000
223/04 22:33BIGJAYAmurni kecil5,000
323/04 22:33DOLOR01murni kecil25,000
423/04 22:33WEAH365balak100,000
523/04 22:33ERWINAYCANmurni besar5,000
623/04 22:33AGSC899999murni enam6,666,000
723/04 22:33DISUR38balak200,000
823/04 22:33HERIAE19balak20,000
923/04 22:33FIFASAGALAmurni kecil25,000
1023/04 22:33ISIAIR09murni besar50,000
1123/04 22:33WOK531murni kecil50,000
1223/04 22:33AWAN202murni kecil50,000
1323/04 22:33UTUNG74balak200,000
1423/04 22:33B45KOMmurni besar50,000
1523/04 22:33ADET47balak200,000
1623/04 22:33KIPLI5569murni besar50,000
1723/04 22:33JACOB86murni kecil50,000
1823/04 22:33BRAVO24murni kecil50,000
1923/04 22:33ADO002murni kecil50,000
2023/04 22:33MANOHAN99murni kecil5,000
2123/04 22:32SIXDEVIL33murni besar50,000
2223/04 22:32BIKE3murni besar25,000
2323/04 22:32ALIFF99murni kecil50,000
2423/04 22:32MANDIN02murni kecil25,000
2523/04 22:32MANPARE7murni kecil25,000
2623/04 22:32KADEKG-PAYmurni kecil5,000
2723/04 22:32MRERSmurni kecil50,000
2823/04 22:32H41234murni kecil25,000
2923/04 22:32TEAO98murni besar50,000
3023/04 22:32COROG237murni kecil50,000
3123/04 22:32ARUL010676murni kecil50,000
3223/04 22:32JHONYBARmurni kecil50,000
3323/04 22:32APACHAM1murni besar25,000
3423/04 22:32TEDUDUKmurni besar50,000
3523/04 22:32JALIRObalak200,000
3623/04 22:32BL4CK1988balak100,000
3723/04 22:32ROYALMTDRmurni kecil50,000
3823/04 22:32PUNISHER24murni kecil5,000
3923/04 22:32PHANTOM_4balak200,000
4023/04 22:32B45F9C7Abalak200,000
4123/04 22:32BDX12murni besar50,000
4223/04 22:32BDX12murni besar50,000
4323/04 22:31TRISEPENmurni kecil50,000
4423/04 22:31BUDUU88murni kecil25,000
4523/04 22:31AANNATAmurni kecil50,000
4623/04 22:31KUPU2211murni kecil50,000
4723/04 22:31BP885656murni kecil50,000
4823/04 22:31OMAY67murni kecil50,000
4923/04 22:31KARAENG68murni besar50,000
5023/04 22:31LJTUTP9ZWXmurni besar25,000